OBJECT H, 67681

Orbit data source: Space-Track

You're viewing an Uncataloged Satellite

Recently launched and/or uncataloged satellites may have evolving metadata. Metadata may include but not limited to: Owner, Maufacturer, Bus, Motor, and Mission.

OBJECT H, 67681 is a satellite owned by VVKO VKS (CIS) in SSO that was launched on Thu, 05 Feb 2026 UTC via a SOYUZ-2-1B launch vehicle from the Plesetsk Missile And Space Complex (PKMTR). Unknown objects in Earth's orbit typically refer to objects detected orbiting the Earth but have not yet been identified or cataloged. These objects could be anything from previously untracked satellites, spent rocket stages, debris from satellite collisions, or even natural meteoroids temporarily captured by Earth's gravity.

Loading next visibility...
Identifier
67681, 2026-023H
Orbit
SSO
Country
Flag of CISCIS
Related business
Manufacturer
Unknown (RU)
Mission
Spacecraft
Bus & Motor
UNK, Unknown motor
Mass
~500 kg wet, ~500 kg dry
Launch date (UTC)
2026-02-05 (1 month ago)
Launch vehicle
SOYUZ-2-1B
Launch site
Plesetsk Missile And Space Complex (PKMTR)
Object type
Unknown
Shape & HBR
Unknown
Radar Cross Section
RCS unknown

Expand to show TLE details & history
Last TLE update: 14 hours ago

TLE from 14 hours ago
0 OBJECT H
1 67681U 26023H   26071.73917843  .00012237  00000-0  51506-3 0  9994
2 67681  96.6390 146.8464 0023912 107.4547 252.9309 15.23222285  5301
Epoch: 2026-03-12T17:44Z
TLE epoch observation values (Epoch: 2026-03-12T17:44:25.016Z)
Latitude
0.00003°
Longitude
70.35742°
Altitude
504.106 km
Speed
7.609 km/s
True Right ascension
09h 47m 23s
True Declination
0° 00' 00"
Sunlit
Object was in full shadow at epoch
Visualization orbit readout
Latitude
Unknown
Longitude
Unknown
Altitude
Unknown
Speed
Unknown
Apparent Right ascension
Unknown
Apparent Declination
Unknown
Sunlit
N/A
Visualization observer readout
Local Sidereal Time
12:23:21
Azimuth
Unknown
Elevation
Unknown
Doppler factor
Unknown
Orbital elements
Apogee altitude
509.489 km
Perigee altitude
476.629 km
Semi-major axis
6,871.196 km
Eccentricity
0.00239
Inclination
96.639°
RAAN
146.8464°
Arg. of periapsis
107.4547°
True anomaly
252.66919°
Mean anomaly
252.9309°
Eccentric anomaly
252.80002°
Mean motion
3.81061 °/min
Orbital period
94.47 mins
BSTAR
0.00051506
Loading maneuver chart data...
Computing Atmospheric mass density...
Loading historical data...
Loading historical data...
Loading historical data...
Loading historical data...
Loading historical data...
Loading historical data...
Loading historical data...

Documentation

Showing up to 5 results
|